Location: *
(50.6089°N, 2.2719°E)
Time: 00:35:13
(UTC+00:00)

Cosmos 2173 Rocket - Pass Details

Date: 18 October 2019
Orbit: 944 x 1001 km, 83.0° (Epoch: 11 November)

Event Time Altitude Azimuth Distance (km) Brightness Sun altitude
Rises 19:34:28 0° 348° (NNW) 3,707 7.4 -26.1°
Reaches altitude 10° 19:37:01 10° 346° (NNW) 2,747 6.7 -26.5°
Maximum altitude 19:43:14 65° 266° (W) 1,062 4.3 -27.4°
Enters shadow 19:47:21 22° 190° (S) 1,980 5.5 -28.0°
